Вернуться в каталог

FENGYUN 1C DEB

АктивенSSO
NORAD 33690·DEBRIS·🇨🇳 China

Запущен May 10, 1999 с Taiyuan Satellite Launch Center

Loading…

Ближайшие Пролёты (ближайшие 24 часа)

TLE

СвежийSource: Space-Track

Эпоха: Sep 14, 2026, 17:52 UTC

1 33690U 99025DGB 26257.74465409  .00004505  00000-0  10369-2 0  9992
2 33690  98.6178   8.9535 0028302 284.6550  75.1509 14.55654015972301

Отслеживайте FENGYUN 1C DEB в реальном времени с AllMySat

Download on the App Store